Date String (YYYY-MM-DD hh:mm:ss) UTC,Instrument flags,absolute air pressure of the measurement (hPa),sample flow rate (lpm),inlet stack bypass flow (lpm),air temperature of the measurement (°C),ambient temperature measured by the external sensor (°C),aerosol sample conditioner tube jacket temperature (°C),OPC LED temperature (°C),internal box temperature (°C),relative humidity of the measurement (%),span deviation,mass concentration of particles derived from Lorenz-Mie calculation of OPC scattering (μg/m³),mass concentration of particles derived from Lorenz-Mie calculation of OPC scattering (μg/m³),mass concentration of particles derived from Lorenz-Mie calculation of OPC scattering (μg/m³)
DateTimeUTC,F1_M11,P_M11,Q1_M11,Q2_M11,T1_M11,T2_M11,T3_M11,T4_M11,T5_M11,U1_M11,ZSPAN_M11,X0_M11,X2_M11,X1_M11
2023-09-15 08:00:00,SystemResetWarning,0836.1,4.99,000.00,027.9,026.4,000.0,036.4,029.5,33.2,0000.0,0002.59,0001.99,0001.68
2023-09-15 08:01:00,SystemResetWarning,0836.1,4.99,000.00,027.9,026.4,000.0,036.4,029.5,33.3,0000.0,0002.65,0002.02,0001.70
2023-09-15 08:02:00,SystemResetWarning,0836.0,4.99,000.00,027.9,026.4,000.0,036.4,029.5,33.2,0000.0,0002.75,0002.03,0001.70
2023-09-15 08:03:00,SystemResetWarning,0836.0,5.01,000.00,027.9,026.4,000.0,036.4,029.5,33.2,0000.0,0002.79,0002.05,0001.71
2023-09-15 08:04:00,SystemResetWarning,0836.0,5.01,000.00,027.9,026.5,000.0,036.4,029.5,33.0,0000.0,0002.84,0002.08,0001.73
2023-09-15 08:05:00,SystemResetWarning,0836.0,5.00,000.00,027.9,026.5,000.0,036.4,029.5,33.0,0000.0,0002.78,0002.07,0001.75
2023-09-15 08:06:00,SystemResetWarning,0836.0,5.00,000.00,027.9,026.5,000.0,036.4,029.5,32.8,0000.0,0002.78,0002.08,0001.77
2023-09-15 08:07:00,SystemResetWarning,0836.0,5.00,000.00,027.9,026.5,000.0,036.4,029.5,32.7,0000.0,0002.82,0002.13,0001.81
2023-09-15 08:08:00,SystemResetWarning,0835.9,4.99,000.00,027.9,026.5,000.0,036.4,029.5,32.8,0000.0,0002.86,0002.15,0001.81
2023-09-15 08:09:00,SystemResetWarning,0835.9,5.00,000.00,027.9,026.4,000.0,036.4,029.5,32.8,0000.0,0002.87,0002.16,0001.82
2023-09-15 08:10:00,SystemResetWarning,0836.0,4.99,000.00,027.9,026.5,000.0,036.4,029.5,32.6,0000.0,0002.89,0002.17,0001.85
2023-09-15 08:11:00,SystemResetWarning,0835.9,5.00,000.00,027.9,026.4,000.0,036.4,029.5,32.7,0000.0,0002.87,0002.20,0001.87
2023-09-15 08:12:00,SystemResetWarning,0836.0,5.00,000.00,027.9,026.4,000.0,036.4,029.5,32.6,0000.0,0002.94,0002.22,0001.89
2023-09-15 08:13:00,SystemResetWarning,0836.0,5.00,000.00,027.9,026.4,000.0,036.4,029.5,32.6,0000.0,0002.91,0002.23,0001.91
2023-09-15 08:14:00,SystemResetWarning,0836.0,5.00,000.00,027.9,026.4,000.0,036.4,029.5,32.6,0000.0,0002.81,0002.23,0001.92
2023-09-15 08:15:00,SystemResetWarning,0836.0,5.00,000.00,027.9,026.4,000.0,036.4,029.5,32.5,0000.0,0002.82,0002.22,0001.91
2023-09-15 08:16:00,SystemResetWarning,0836.0,5.00,000.00,027.9,026.5,000.0,036.4,029.5,32.5,0000.0,0002.79,0002.20,0001.88
2023-09-15 08:17:00,SystemResetWarning,0836.0,5.00,000.00,027.9,026.5,000.0,036.4,029.5,32.3,0000.0,0002.79,0002.19,0001.86
2023-09-15 08:18:00,SystemResetWarning,0836.0,5.00,000.00,027.9,026.4,000.0,036.4,029.5,32.5,0000.0,0002.76,0002.13,0001.82
2023-09-15 08:19:00,SystemResetWarning,0836.0,5.01,000.00,027.9,026.4,000.0,036.4,029.5,32.5,0000.0,0002.81,0002.12,0001.80
2023-09-15 08:20:00,SystemResetWarning,0836.0,5.01,000.00,027.9,026.4,000.0,036.4,029.5,32.4,0000.0,0002.79,0002.10,0001.80
2023-09-15 08:21:00,SystemResetWarning,0835.9,5.00,000.00,027.9,026.5,000.0,036.4,029.5,32.3,0000.0,0002.75,0002.07,0001.78
2023-09-15 08:22:00,SystemResetWarning,0836.0,4.99,000.00,027.9,026.5,000.0,036.4,029.5,32.2,0000.0,0002.81,0002.03,0001.76
2023-09-15 08:23:00,SystemResetWarning,0835.9,4.99,000.00,027.9,026.5,000.0,036.4,029.5,32.1,0000.0,0002.83,0002.03,0001.76
2023-09-15 08:24:00,SystemResetWarning,0835.9,5.02,000.00,027.9,026.5,000.0,036.4,029.5,32.0,0000.0,0002.81,0002.01,0001.75
2023-09-15 08:25:00,SystemResetWarning,0835.9,4.99,000.00,027.9,026.5,000.0,036.4,029.5,32.1,0000.0,0002.79,0002.00,0001.75
2023-09-15 08:26:00,SystemResetWarning,0836.0,4.99,000.00,027.9,026.5,000.0,036.4,029.5,32.1,0000.0,0002.72,0001.99,0001.76
2023-09-15 08:27:00,SystemResetWarning,0835.9,5.00,000.00,027.9,026.5,000.0,036.4,029.5,32.2,0000.0,0002.84,0002.04,0001.77
2023-09-15 08:28:00,SystemResetWarning,0836.0,5.01,000.00,027.9,026.5,000.0,036.4,029.5,32.1,0000.0,0002.90,0002.08,0001.79
2023-09-15 08:29:00,SystemResetWarning,0836.0,4.99,000.00,027.9,026.4,000.0,036.4,029.5,32.0,0000.0,0003.04,0002.14,0001.80
2023-09-15 08:30:00,SystemResetWarning,0836.0,4.99,000.00,027.9,026.5,000.0,036.4,029.5,32.0,0000.0,0003.14,0002.17,0001.83
2023-09-15 08:31:00,SystemResetWarning,0835.9,5.01,000.00,027.9,026.5,000.0,036.4,029.5,32.0,0000.0,0003.12,0002.17,0001.83
2023-09-15 08:32:00,SystemResetWarning,0836.0,5.01,000.00,027.9,026.5,000.0,036.4,029.5,32.0,0000.0,0003.13,0002.18,0001.84
2023-09-15 08:33:00,SystemResetWarning,0835.9,5.00,000.00,027.9,026.6,000.0,036.4,029.6,31.8,0000.0,0003.05,0002.18,0001.85
2023-09-15 08:34:00,SystemResetWarning,0836.0,5.00,000.00,027.9,026.6,000.0,036.4,029.5,31.8,0000.0,0002.98,0002.17,0001.84
2023-09-15 08:35:00,SystemResetWarning,0835.9,5.00,000.00,027.9,026.6,000.0,036.4,029.6,31.9,0000.0,0003.11,0002.22,0001.85
2023-09-15 08:36:00,SystemResetWarning,0836.0,4.99,000.00,028.0,026.6,000.0,036.4,029.6,31.8,0000.0,0003.20,0002.26,0001.87
2023-09-15 08:37:00,SystemResetWarning,0835.9,4.99,000.00,028.0,026.7,000.0,036.4,029.6,31.8,0000.0,0003.27,0002.27,0001.87
2023-09-15 08:38:00,SystemResetWarning,0835.9,5.00,000.00,028.0,026.7,000.0,036.4,029.6,31.7,0000.0,0003.23,0002.24,0001.88
2023-09-15 08:39:00,SystemResetWarning,0836.0,5.01,000.00,028.0,026.7,000.0,036.4,029.7,31.6,0000.0,0003.20,0002.22,0001.88
2023-09-15 08:40:00,SystemResetWarning,0835.9,5.00,000.00,028.0,026.7,000.0,036.4,029.7,31.5,0000.0,0003.67,0002.18,0001.87
2023-09-15 08:41:00,SystemResetWarning,0835.9,5.00,000.00,028.0,026.8,000.0,036.5,029.7,31.5,0000.0,0003.93,0002.14,0001.86
2023-09-15 08:42:00,SystemResetWarning,0835.9,5.00,000.00,028.0,026.8,000.0,036.5,029.7,31.6,0000.0,0003.91,0002.13,0001.86
2023-09-15 08:43:00,SystemResetWarning,0835.9,5.00,000.00,028.1,026.8,000.0,036.5,029.7,31.5,0000.0,0003.91,0002.13,0001.86
2023-09-15 08:44:00,SystemResetWarning,0835.9,4.99,000.00,028.1,026.8,000.0,036.5,029.7,31.6,0000.0,0003.87,0002.12,0001.84
2023-09-15 08:45:00,SystemResetWarning,0835.9,5.00,000.00,028.1,026.8,000.0,036.5,029.7,31.5,0000.0,0003.81,0002.12,0001.83
2023-09-15 08:46:00,SystemResetWarning,0835.9,5.01,000.00,028.1,026.8,000.0,036.5,029.7,31.5,0000.0,0003.78,0002.12,0001.82
2023-09-15 08:47:00,SystemResetWarning,0835.9,5.00,000.00,028.1,026.9,000.0,036.5,029.7,31.6,0000.0,0003.69,0002.07,0001.79
2023-09-15 08:48:00,SystemResetWarning,0835.9,5.00,000.00,028.1,026.9,000.0,036.5,029.8,31.4,0000.0,0003.62,0002.05,0001.78
2023-09-15 08:49:00,SystemResetWarning,0835.9,5.00,000.00,028.1,026.9,000.0,036.5,029.8,31.2,0000.0,0003.59,0002.05,0001.76
2023-09-15 08:50:00,SystemResetWarning,0836.0,5.00,000.00,028.1,026.9,000.0,036.5,029.8,31.3,0000.0,0003.61,0002.02,0001.73
2023-09-15 08:51:00,SystemResetWarning,0836.0,5.00,000.00,028.2,026.9,000.0,036.5,029.8,31.2,0000.0,0003.07,0002.01,0001.72
2023-09-15 08:52:00,SystemResetWarning,0835.9,5.01,000.00,028.2,026.9,000.0,036.5,029.8,31.3,0000.0,0002.65,0002.04,0001.72
2023-09-15 08:53:00,SystemResetWarning,0835.9,5.00,000.00,028.2,026.9,000.0,036.5,029.8,31.5,0000.0,0002.60,0002.01,0001.69
2023-09-15 08:54:00,SystemResetWarning,0835.9,5.00,000.00,028.2,026.9,000.0,036.6,029.8,31.4,0000.0,0002.60,0002.00,0001.68
2023-09-15 08:55:00,SystemResetWarning,0835.9,5.00,000.00,028.2,026.9,000.0,036.6,029.8,31.1,0000.0,0002.66,0002.05,0001.69
2023-09-15 08:56:00,SystemResetWarning,0835.9,5.00,000.00,028.2,026.9,000.0,036.6,029.9,31.0,0000.0,0002.68,0002.04,0001.68
2023-09-15 08:57:00,SystemResetWarning,0835.9,5.00,000.00,028.3,026.9,000.0,036.6,029.9,31.0,0000.0,0002.58,0001.98,0001.66
2023-09-15 08:58:00,SystemResetWarning,0835.9,5.00,000.00,028.3,027.0,000.0,036.6,029.9,31.0,0000.0,0002.57,0001.96,0001.65
2023-09-15 08:59:00,SystemResetWarning,0835.9,4.99,000.00,028.3,027.0,000.0,036.6,029.9,30.9,0000.0,0002.59,0001.96,0001.64
